GFSFLT1_700_spd_000.txt.gz
Wind_Speed
18 16 21 29 28 27 28 28 28 27 24 22 20 21 22 22 21 21 19 17 15 11 8 8 8 7 9 12 14 16 18 15 13
14 14 20 26 32 31 31 30 28 24 24 23 22 22 22 21 22 23 24 21 17 14 11 10 9 13 14 15 15 16 19 18 16
12 16 22 22 25 30 33 32 30 27 25 25 27 27 25 24 23 27 28 26 23 19 15 14 12 13 17 22 22 18 21 20 18
12 16 18 23 23 26 35 34 31 27 26 24 25 28 26 28 27 30 32 32 26 24 21 25 16 17 27 25 25 22 21 22 19
18 18 18 18 23 30 30 34 37 32 28 28 26 21 21 23 28 34 36 38 32 28 28 31 23 27 25 22 26 28 23 23 22
19 23 23 23 26 34 27 31 33 31 31 29 27 24 25 24 26 29 37 41 42 35 42 40 44 46 45 40 32 29 24 23 23
17 21 18 20 29 32 30 32 31 31 32 32 29 28 27 27 29 34 35 36 42 51 48 55 55 44 41 36 38 30 23 25 24
25 23 23 22 31 33 26 26 30 33 33 32 27 28 29 29 33 34 33 35 39 45 52 47 46 39 36 37 37 33 26 27 27
32 30 26 22 33 31 23 20 22 25 25 27 27 30 31 31 29 26 26 29 36 41 39 36 34 27 34 35 36 37 31 29 29
29 26 23 24 30 28 25 24 26 28 28 29 32 32 31 28 27 28 29 29 29 28 28 29 31 29 34 32 32 35 32 30 32
34 29 30 29 31 32 28 30 30 31 34 34 33 33 32 29 29 24 22 20 18 20 25 26 23 26 29 29 31 35 34 36 35
33 33 32 32 32 32 34 34 32 32 32 34 34 35 35 31 21 12 14 14 18 17 24 27 23 25 24 26 30 35 33 35 34
31 37 33 31 31 38 36 31 33 31 35 34 36 36 33 25 17 14 17 19 22 21 22 23 20 22 23 24 27 31 28 28 31
35 37 36 35 33 31 33 34 33 34 33 33 31 28 26 22 23 25 30 31 36 21 18 16 17 19 22 24 26 24 26 27 29
33 38 31 33 34 29 31 34 32 31 30 27 24 21 21 26 29 29 31 27 29 21 13 13 13 16 19 21 22 26 27 28 32
29 30 30 29 28 31 34 34 33 29 24 21 21 25 31 31 28 21 19 21 20 18 14 14 15 17 21 21 26 27 28 32 34
33 32 32 32 31 31 31 32 31 28 22 24 28 32 28 22 20 17 18 18 18 16 14 17 15 20 25 25 27 29 28 29 30
31 30 25 23 23 23 24 26 25 25 27 31 30 27 25 21 20 19 18 19 19 19 18 15 15 16 21 27 24 22 22 21 23
18 20 19 16 18 20 22 24 26 29 29 24 25 23 20 21 21 19 20 18 15 16 19 18 18 15 18 19 23 21 19 20 23
22 17 16 16 17 19 20 20 20 19 19 19 20 19 19 19 18 18 17 16 17 19 20 19 18 17 15 16 19 22 22 22 23

GFSFLT1_700_spd_003.txt.gz
Wind_Speed
20 24 28 32 26 22 22 24 28 29 27 26 24 22 20 20 21 21 21 20 20 20 18 15 11 9 8 10 12 16 19 21 18
23 22 28 28 25 25 23 23 23 22 25 26 25 22 21 22 24 23 23 25 24 21 19 14 13 10 14 18 20 20 19 21 22
22 22 25 31 32 27 24 23 24 24 25 26 27 25 24 24 24 26 28 28 26 26 20 20 20 17 23 29 33 33 32 25 24
23 19 24 29 32 27 24 25 28 26 29 29 28 28 28 26 24 24 28 29 29 29 28 25 29 31 32 30 32 29 34 29 24
18 22 23 23 30 32 30 26 28 30 31 29 26 28 28 28 29 30 29 30 31 31 33 32 35 34 38 40 37 30 34 30 30
21 11 16 19 22 34 35 32 28 30 32 29 28 28 26 25 26 28 32 29 29 29 38 38 35 40 43 43 43 43 42 32 34
20 17 19 17 23 27 38 38 29 29 30 33 29 30 30 26 26 28 31 31 29 30 36 36 36 38 43 47 47 46 45 41 34
21 22 24 21 18 18 25 38 29 28 32 34 35 35 34 31 31 33 35 32 28 29 33 35 36 36 35 40 42 46 44 42 31
24 24 23 31 26 24 25 31 30 27 31 36 38 39 33 34 34 33 31 31 28 28 31 35 35 36 34 32 35 41 41 45 33
36 33 29 30 32 29 27 35 32 32 36 38 37 35 34 35 33 30 30 28 29 27 26 26 28 24 25 33 36 36 35 40 32
38 38 33 30 30 31 31 38 33 31 31 33 33 33 34 35 34 29 24 24 23 22 15 11 14 21 30 32 32 36 32 35 33
35 31 32 29 33 32 29 39 33 33 31 31 34 36 37 35 31 28 24 21 16 13 12 17 30 24 35 29 30 33 26 26 31
41 40 32 32 35 35 34 41 36 35 34 32 33 35 36 32 28 25 23 17 14 16 20 22 28 29 30 25 26 26 23 22 26
38 41 38 35 35 38 32 43 41 36 36 34 34 35 35 30 27 22 20 21 19 23 23 27 25 23 22 22 24 24 23 22 22
35 39 40 41 37 35 32 34 35 32 34 35 35 32 29 26 22 21 22 25 27 26 23 23 20 18 18 19 20 23 22 19 18
37 36 37 33 34 37 32 31 32 34 34 32 30 28 26 25 22 24 25 26 26 23 19 16 17 18 18 18 19 22 23 17 19
23 26 28 29 34 38 38 38 35 30 27 25 25 22 19 21 25 26 25 23 20 17 15 16 18 20 20 19 22 22 20 23 23
27 28 28 31 35 34 32 30 26 24 20 19 18 20 22 23 20 21 21 21 18 17 17 18 20 19 18 20 22 23 26 21 19
21 23 27 27 24 21 19 17 17 17 18 18 21 19 16 16 16 17 18 18 19 20 19 19 19 19 20 17 18 18 21 21 21
22 20 16 15 12 13 14 16 19 21 21 15 13 13 14 14 14 16 18 20 20 18 17 16 19 19 20 20 18 18 20 22 22

GFSFLT1_700_spd_006.txt.gz
Wind_Speed
38 29 30 34 29 26 22 18 19 20 18 21 22 22 20 22 20 21 18 15 15 15 15 17 10 12 10 11 12 19 19 21 29
26 35 31 28 31 27 29 24 23 15 16 15 22 23 21 21 18 21 17 17 20 17 19 18 12 14 14 16 19 19 19 22 29
24 19 30 24 26 28 29 28 23 21 21 18 22 24 24 21 20 17 16 19 21 17 19 21 15 17 18 23 24 28 26 29 31
28 22 24 22 24 29 31 31 25 24 22 24 25 28 28 24 21 16 16 18 17 18 22 17 23 23 24 27 28 30 30 34 37
25 31 32 29 27 29 26 27 29 27 26 26 26 27 28 25 22 21 21 20 16 18 23 22 27 29 31 33 34 36 36 37 39
26 11 26 28 27 30 24 23 29 30 27 28 29 26 24 23 27 27 25 21 20 20 23 25 29 33 35 39 41 41 43 44 43
24 18 21 27 22 29 30 22 27 32 28 30 31 28 25 26 26 25 24 21 19 23 25 27 31 34 38 40 42 43 44 46 44
23 24 21 21 24 25 32 34 24 33 31 29 33 29 29 27 26 24 25 24 20 24 27 26 30 34 35 35 38 41 45 48 44
32 34 31 19 23 25 28 35 28 28 33 32 32 32 31 27 27 28 28 26 26 27 29 29 31 33 33 29 26 38 42 46 43
33 32 33 27 18 23 28 28 26 26 34 36 34 33 31 28 28 30 31 28 28 28 30 31 33 32 27 21 27 36 42 48 43
34 31 35 39 36 25 28 32 30 33 40 41 36 35 36 32 29 33 31 27 27 30 29 29 29 26 22 25 21 36 42 44 38
43 40 32 39 41 40 35 36 32 31 39 36 36 35 36 32 33 38 30 28 29 28 28 26 22 21 24 24 29 30 37 34 35
41 50 43 28 32 35 41 39 35 34 41 34 33 33 32 37 36 33 31 30 28 26 23 19 19 22 24 27 29 29 29 27 27
34 39 49 43 30 28 35 38 31 31 42 36 33 36 36 37 37 34 31 30 26 21 18 19 22 23 25 26 24 24 23 23 23
31 24 31 33 37 34 36 30 31 39 46 41 39 40 38 40 34 32 28 20 17 16 19 23 21 23 23 22 19 20 21 21 20
31 32 26 27 35 36 39 37 34 37 45 43 41 38 37 35 29 24 25 27 17 20 22 21 20 19 20 19 19 18 17 20 21
29 33 25 28 35 39 39 42 41 41 38 40 38 35 31 27 26 22 19 18 16 16 17 18 18 19 18 19 20 15 17 20 19
19 22 26 30 33 32 35 41 42 36 36 35 32 29 26 21 17 13 14 15 15 17 16 16 18 17 18 19 18 17 18 21 23
27 26 27 27 30 30 31 30 31 30 30 23 21 18 16 12 11 12 14 15 16 17 17 18 17 18 17 15 18 19 19 19 20
26 23 23 23 23 21 20 19 18 19 19 16 15 14 12 9 11 13 14 14 16 19 18 18 15 14 17 16 18 20 21 22 22

GFSFLT1_700_spd_009.txt.gz
Wind_Speed
37 29 33 38 32 20 16 18 17 14 13 21 24 23 20 19 15 15 13 14 14 12 11 10 7 7 8 9 7 9 13 18 21
46 41 31 46 44 26 20 20 22 19 14 14 20 22 19 19 16 15 15 17 16 13 11 9 10 11 13 13 13 14 15 19 22
39 25 28 48 50 31 16 18 18 21 18 16 17 20 18 19 17 17 17 20 19 14 11 10 11 14 17 16 16 18 19 24 27
31 29 27 42 48 27 16 18 20 21 23 20 21 20 18 21 21 21 21 20 18 13 11 11 10 14 20 21 22 24 24 25 31
27 32 29 36 44 29 18 20 22 22 25 25 22 22 20 23 25 24 22 19 15 14 11 12 14 15 21 24 26 29 29 30 34
21 30 27 34 38 30 17 21 21 24 27 27 23 24 22 24 28 27 23 20 17 15 14 16 18 19 20 25 29 31 32 34 36
31 28 30 30 36 28 18 21 18 23 26 27 25 25 25 24 25 25 24 21 19 16 17 19 22 25 27 30 32 34 35 35 38
24 24 19 29 29 28 27 23 20 20 22 22 27 26 26 25 23 23 24 24 23 22 22 20 23 27 29 31 32 33 32 33 35
28 24 25 31 31 31 26 26 24 19 22 21 23 28 26 25 25 26 27 26 23 22 22 23 26 28 30 30 31 31 29 31 33
37 35 29 27 29 28 26 29 21 20 16 17 23 26 28 27 28 28 27 27 26 26 24 26 29 31 32 31 29 28 27 29 33
17 31 39 33 33 26 25 24 26 24 23 25 21 28 30 29 31 31 30 30 30 30 30 30 30 31 32 29 24 22 25 30 37
29 37 27 29 27 34 32 33 24 25 26 26 27 29 33 30 31 32 32 33 30 30 30 28 27 28 26 24 23 22 28 33 39
18 23 27 39 29 33 37 46 41 37 34 31 30 30 35 31 32 30 33 36 30 26 27 29 30 26 22 22 22 25 30 33 31
28 31 31 34 42 45 33 33 39 35 38 33 32 33 38 37 37 35 37 38 31 30 29 25 23 22 22 24 24 28 28 25 22
33 32 28 30 41 39 42 36 32 36 35 34 32 34 38 39 38 40 40 36 31 29 19 22 29 25 25 25 25 24 23 20 17
32 32 31 29 25 29 38 45 33 32 31 25 32 39 42 42 42 39 38 35 32 27 24 23 24 26 24 25 24 24 20 19 17
21 28 28 33 35 25 31 40 41 38 35 32 31 40 46 49 43 38 36 30 29 25 20 20 23 23 23 23 21 19 18 18 17
35 29 34 37 37 35 28 28 30 34 36 34 34 36 40 40 37 31 28 27 22 18 18 21 22 19 19 21 17 18 19 18 18
27 28 26 41 36 37 35 27 27 32 35 33 33 32 30 30 29 26 22 19 17 18 19 21 20 17 18 18 17 16 16 15 17
28 31 6 29 29 25 25 22 22 25 23 23 25 27 24 22 20 19 17 17 17 18 19 17 17 17 15 15 16 16 16 18 19

GFSFLT1_700_spd_012.txt.gz
Wind_Speed
37 31 21 28 32 22 24 24 21 20 20 21 25 31 27 22 20 17 17 16 14 13 14 15 15 12 10 8 7 6 6 10 14
39 39 29 30 25 27 30 30 25 22 18 19 19 27 28 24 21 20 20 19 15 17 17 17 17 15 14 12 10 9 9 12 15
38 42 36 33 29 28 34 34 32 24 20 18 17 20 21 22 20 21 22 20 18 21 20 19 16 15 14 12 10 13 13 15 18
41 42 42 38 30 30 32 32 32 29 24 22 23 22 19 19 21 24 24 21 19 22 22 20 17 16 18 17 18 17 17 19 21
43 46 42 42 34 33 30 32 33 30 26 25 25 23 22 19 22 25 25 21 20 22 20 18 17 16 16 19 21 22 21 22 24
37 46 44 44 39 28 33 33 26 30 24 24 24 26 27 24 24 27 27 23 22 21 20 18 18 17 15 15 20 21 23 24 27
21 38 38 39 48 43 34 35 27 31 27 24 21 27 30 29 26 27 29 25 23 23 23 20 19 18 19 20 22 23 24 27 29
24 27 27 29 30 36 39 36 29 24 26 26 23 27 30 29 28 27 30 30 27 26 26 24 23 23 25 25 26 25 24 26 27
32 34 35 32 36 36 38 37 32 22 26 24 22 22 29 27 31 30 30 31 30 29 27 26 27 29 30 29 28 25 24 25 25
28 27 33 27 25 29 39 33 28 25 25 26 23 22 24 27 31 33 32 33 32 31 29 28 29 29 29 29 28 28 26 23 27
19 31 34 37 30 29 33 33 27 26 25 26 21 23 27 29 29 33 33 36 35 34 31 31 31 31 31 26 31 27 25 23 27
39 25 31 30 36 32 34 36 35 29 31 29 26 23 24 34 34 34 37 36 37 35 35 35 33 31 29 23 18 22 25 29 29
32 38 37 32 28 38 37 36 37 38 36 34 33 31 26 29 38 34 33 38 38 37 36 31 29 25 21 34 27 21 25 30 29
29 30 36 35 36 41 43 42 39 38 39 42 39 32 29 28 31 37 33 33 38 39 33 30 27 23 28 26 22 23 27 26 29
22 25 26 28 34 39 45 44 46 45 43 39 36 30 35 36 34 34 37 38 38 30 29 31 23 23 28 23 25 25 27 26 28
28 31 29 30 31 40 42 45 48 51 49 41 38 37 39 37 34 33 41 43 40 34 34 30 27 33 27 25 27 29 27 25 23
28 31 37 39 33 32 31 38 53 53 52 53 43 41 37 30 31 35 41 43 40 38 37 30 30 27 24 27 27 26 23 22 19
25 28 30 33 37 38 35 33 43 50 53 47 45 42 36 30 29 30 37 42 43 39 33 28 31 28 28 26 23 22 22 20 19
24 23 27 32 38 45 49 39 37 43 46 46 38 37 33 31 35 36 39 34 34 28 32 32 30 28 26 23 21 19 19 18 17
25 29 31 34 41 46 57 70 82 35 40 33 33 36 33 30 35 28 38 38 36 28 32 29 26 20 21 20 18 18 17 16 17

GFSFLT1_700_spd_015.txt.gz
Wind_Speed
26 35 31 27 30 25 23 23 22 21 23 24 25 26 29 26 24 23 22 21 18 16 16 19 21 20 18 14 12 10 7 4 5
33 35 34 31 23 28 26 26 25 22 19 21 24 24 23 27 28 26 24 22 19 17 20 24 27 23 19 16 14 12 12 11 10
37 35 35 34 34 27 28 26 26 23 18 18 20 20 22 23 29 26 25 25 23 20 24 27 29 25 21 17 16 14 14 13 14
23 29 35 38 39 40 28 30 30 28 24 22 22 24 22 23 26 28 27 27 23 22 27 31 29 24 22 19 16 16 15 16 17
30 33 34 38 42 37 31 30 29 30 25 26 25 26 24 25 23 27 29 28 24 25 29 34 29 27 25 22 19 19 19 19 20
24 23 19 32 45 44 33 27 27 30 27 27 27 28 28 28 27 26 28 28 25 26 31 33 31 28 26 24 24 21 20 20 21
24 18 11 23 34 44 37 33 30 34 28 28 30 30 33 32 31 27 23 28 27 26 32 33 32 30 26 23 21 20 20 21 21
30 26 20 21 35 36 37 40 40 37 32 30 32 33 37 37 33 30 26 30 30 29 32 32 32 30 28 24 23 22 21 22 24
24 28 28 21 27 31 34 39 38 41 35 31 34 34 37 36 35 35 32 31 34 32 32 33 33 31 28 26 25 23 23 23 25
34 27 25 35 36 35 32 33 33 39 37 34 33 33 36 34 34 36 37 33 35 38 37 37 36 33 31 28 27 24 23 26 31
38 35 28 33 41 40 30 25 36 34 39 34 29 32 33 33 31 35 38 40 36 37 40 40 39 36 33 30 29 25 20 21 22
29 29 28 27 30 36 33 31 32 36 41 38 31 32 34 34 31 32 36 39 38 39 41 42 40 38 35 32 28 26 21 14 21
25 26 31 28 29 34 34 32 32 37 37 38 38 32 31 29 31 33 36 36 42 39 41 41 40 38 36 34 31 33 28 27 26
30 31 29 29 30 26 27 33 38 39 40 43 35 34 34 34 32 33 35 38 38 42 43 43 43 41 38 35 31 28 27 35 30
39 32 30 32 31 32 31 30 32 36 44 40 40 37 41 38 37 37 34 39 39 41 40 45 44 43 40 33 31 30 27 28 30
31 34 29 30 30 32 32 32 36 36 33 32 39 41 40 39 45 43 39 36 37 43 45 38 38 43 39 35 32 30 22 29 33
23 25 25 26 29 33 36 37 37 38 36 39 45 47 48 44 53 47 53 46 43 44 47 46 44 41 37 36 31 23 22 31 27
17 18 21 23 24 24 25 31 37 44 47 51 54 54 51 56 54 53 54 51 48 45 48 47 45 42 35 27 21 20 32 29 24
10 11 15 15 14 19 24 35 43 47 50 53 54 57 55 57 61 59 54 49 45 45 40 38 44 41 24 22 18 22 26 24 21
11 12 14 17 22 24 30 37 40 43 49 52 60 64 62 58 55 63 59 49 46 47 42 36 27 24 28 21 23 26 30 21 21

GFSFLT1_700_spd_021.txt.gz
Wind_Speed
24 25 22 24 28 26 26 24 26 25 28 34 32 32 29 26 24 22 20 20 19 16 14 14 18 25 27 25 24 21 18 14 9
23 23 20 19 16 25 29 29 27 28 27 23 27 32 30 30 29 26 23 21 20 18 16 18 23 27 29 28 26 23 19 16 13
25 21 19 16 17 20 23 25 26 26 26 28 26 23 22 27 31 29 27 26 24 21 18 19 25 30 32 32 30 26 22 18 16
33 25 21 15 16 18 21 24 27 27 27 26 26 28 26 24 21 20 22 25 25 25 22 22 25 32 34 34 32 29 24 21 18
37 34 22 17 13 14 19 22 24 29 31 32 30 27 26 25 24 24 25 25 24 26 26 25 26 32 36 37 35 32 27 24 21
25 29 34 30 28 24 19 19 24 33 32 34 33 32 29 29 29 29 26 25 25 26 27 27 30 33 37 39 37 34 30 26 24
26 26 22 25 27 27 25 24 24 27 35 35 35 36 33 32 30 30 29 25 25 26 28 30 32 34 38 40 38 36 34 30 26
20 21 28 26 29 32 32 29 26 25 26 31 35 36 36 35 32 31 32 31 28 26 29 29 31 35 39 41 41 39 36 32 28
36 22 22 19 19 22 23 30 25 26 27 32 35 32 29 29 34 34 34 35 33 30 30 29 33 37 39 42 42 41 38 34 32
24 25 25 24 24 22 25 25 24 30 31 32 32 30 27 29 27 28 34 35 35 35 33 32 33 38 39 41 43 42 39 37 36
26 20 18 19 17 23 26 24 25 29 32 36 33 32 35 32 29 27 29 36 36 36 35 35 34 37 39 40 42 45 43 42 41
19 17 21 25 22 23 27 26 27 33 31 30 31 33 35 35 33 32 31 32 36 38 38 38 39 38 41 40 41 41 44 45 45
24 21 22 26 24 19 30 29 31 33 35 33 31 32 30 30 31 32 34 31 32 35 39 39 39 42 42 44 43 45 47 48 50
25 24 22 26 25 26 26 30 27 34 35 33 31 30 31 31 33 35 37 34 32 31 32 37 41 43 46 46 47 48 50 51 53
24 26 23 27 26 29 26 27 30 27 35 40 40 40 36 36 35 36 41 38 35 35 37 38 36 39 42 46 49 50 54 54 54
26 32 29 24 27 26 26 25 25 27 26 28 30 35 39 40 36 36 41 42 40 39 39 44 39 45 46 43 43 50 53 52 53
30 31 30 26 31 30 29 27 26 29 29 28 28 28 30 33 37 37 38 41 44 45 46 49 45 47 48 45 43 50 48 54 54
35 36 33 28 25 28 31 30 31 30 29 28 28 29 30 32 34 36 38 42 44 48 47 50 51 52 51 57 63 48 50 56 57
32 31 30 29 27 27 28 28 29 29 30 30 29 29 31 33 35 37 41 48 52 51 52 53 54 53 57 56 55 52 56 48 48
24 23 24 26 26 26 26 24 24 26 26 29 31 34 37 39 43 49 55 59 62 63 63 63 62 61 61 56 53 45 42 47 50

GFSFLT1_700_spd_024.txt.gz
Wind_Speed
23 20 21 19 20 25 24 22 23 25 29 29 30 29 25 24 23 22 21 21 20 18 17 15 16 18 24 26 25 23 20 17 12
24 21 19 18 16 20 24 26 26 25 22 24 30 30 29 27 25 26 23 21 21 20 19 18 19 21 26 28 28 26 23 21 17
24 26 27 24 15 15 17 21 24 27 27 25 22 26 28 29 27 27 27 26 26 23 20 19 21 23 28 31 31 30 26 23 22
28 24 25 22 14 15 15 21 25 26 28 29 29 28 24 24 28 32 31 31 28 27 24 23 23 25 29 34 34 33 30 26 25
26 25 25 24 20 14 18 21 24 25 26 26 27 26 28 27 26 23 25 28 28 28 29 26 25 25 29 35 38 37 34 31 28
24 30 33 32 26 18 15 18 22 24 26 28 30 30 30 31 31 31 27 26 25 25 25 26 28 29 31 33 38 39 36 34 31
13 19 23 30 35 31 24 23 18 19 22 28 32 36 36 35 33 30 30 29 29 29 28 28 26 31 31 33 36 40 39 37 35
16 18 15 18 18 26 29 29 28 25 23 25 32 38 39 39 34 34 34 33 33 31 33 32 30 29 33 34 36 39 41 40 38
20 23 22 17 21 22 28 29 28 30 30 26 30 43 41 37 39 37 36 36 35 36 36 34 34 31 30 34 36 36 38 40 40
26 32 28 22 21 21 24 29 29 30 32 27 27 38 44 39 38 40 40 40 38 36 38 38 36 34 32 33 35 35 37 40 41
22 19 25 29 29 24 25 29 31 34 32 30 28 35 36 39 36 37 37 36 35 36 39 41 39 36 36 33 31 34 36 41 44
21 16 19 22 26 27 28 31 33 32 32 32 30 36 33 37 37 34 34 34 33 35 39 40 40 38 36 37 35 33 35 40 47
18 18 19 16 21 28 28 29 33 35 32 34 32 31 36 36 38 38 36 30 29 31 34 39 43 42 39 36 38 36 36 40 48
27 23 25 24 19 26 27 25 31 32 31 31 32 32 32 34 37 41 39 35 36 38 37 39 41 41 42 41 37 40 41 43 45
28 27 28 28 25 20 30 27 27 32 31 32 34 36 38 36 34 37 38 38 39 39 41 42 42 41 40 39 39 42 43 46 50
23 33 30 28 25 21 26 28 30 30 30 29 32 36 37 37 36 34 36 36 35 39 39 45 45 46 43 39 41 40 41 41 47
27 35 30 31 27 27 25 28 30 30 29 30 30 28 29 34 39 40 42 42 41 39 38 44 46 46 46 42 47 44 41 45 45
28 31 33 32 29 26 24 32 31 31 29 28 29 30 29 28 27 26 29 30 31 34 34 37 39 39 46 51 56 55 51 51 50
28 28 30 31 29 25 26 31 34 35 33 33 32 30 29 29 28 29 30 31 35 37 38 42 43 44 46 47 51 61 61 57 56
24 27 30 31 30 30 31 30 31 31 32 33 32 31 29 29 29 31 33 36 39 43 48 50 56 58 60 60 62 63 60 61 66

GFSFLT1_700_spd_027.txt.gz
Wind_Speed
28 25 24 30 32 28 24 20 20 26 28 31 31 29 27 24 24 26 23 20 18 17 15 14 17 14 16 21 23 23 19 15 13
29 27 25 30 32 29 21 24 20 18 23 26 27 26 25 24 22 27 25 21 19 20 19 18 17 17 18 21 24 26 24 20 16
34 28 27 28 31 28 21 23 22 18 20 19 21 25 25 24 24 25 24 23 23 22 19 18 20 18 20 21 25 27 27 25 22
30 28 27 29 29 28 23 25 28 24 23 21 22 20 21 25 26 26 27 26 25 25 23 22 23 20 21 21 25 28 29 28 26
32 29 27 27 28 26 29 27 28 28 27 26 24 24 22 21 21 26 29 31 30 28 28 27 24 25 23 24 25 29 31 30 30
25 28 26 27 28 25 26 29 27 26 27 26 28 29 27 26 25 25 24 25 29 30 32 33 30 29 29 26 26 28 31 32 33
22 24 24 27 27 26 26 25 24 27 28 29 32 33 32 30 27 25 25 25 24 26 26 28 27 26 26 28 28 28 28 30 33
14 13 20 26 28 25 28 29 24 18 19 21 20 23 32 35 32 31 32 31 28 29 29 27 27 29 28 26 29 30 31 32 35
12 12 14 14 15 21 31 35 31 28 23 22 21 23 23 29 39 37 35 33 31 32 32 30 31 31 29 29 28 28 28 30 34
13 13 12 15 17 15 24 29 32 32 30 27 28 27 27 28 38 40 41 37 34 33 34 35 34 35 35 34 30 29 27 28 33
15 18 22 20 20 19 20 22 20 28 33 36 33 32 29 28 34 43 41 40 39 38 37 37 38 38 38 37 32 30 29 27 31
22 19 16 18 19 22 24 27 27 29 34 37 35 32 31 27 34 40 43 40 41 41 42 42 42 41 40 39 34 30 32 32 34
19 17 17 18 20 22 24 34 32 33 36 36 34 31 33 30 32 36 39 41 40 42 39 38 41 41 40 40 37 38 34 36 39
27 29 28 28 27 26 28 28 35 35 35 38 31 35 36 32 27 35 36 41 42 41 41 43 43 42 41 42 40 37 38 38 43
25 29 32 29 27 28 26 23 31 31 29 30 33 34 32 33 30 32 38 39 43 45 44 41 40 41 42 46 46 42 39 39 45
23 20 26 32 31 31 31 27 29 32 29 28 32 32 27 28 31 32 34 36 38 41 41 39 35 38 39 40 47 49 45 44 44
24 26 21 30 33 33 33 30 26 34 32 30 31 31 28 24 27 30 32 34 36 37 38 39 40 38 36 37 43 48 49 49 47
20 26 26 25 33 35 31 31 26 30 32 32 31 28 30 31 28 28 29 29 31 33 34 33 32 33 32 31 31 34 43 50 56
26 28 28 26 27 33 31 32 29 26 33 33 31 29 28 29 28 29 28 28 28 29 29 30 29 30 33 35 37 35 40 43 46
28 23 24 26 27 33 30 29 28 29 31 34 34 34 32 32 29 30 31 31 31 30 32 33 34 37 40 44 48 49 51 54 55

GFSFLT1_700_spd_030.txt.gz
Wind_Speed
32 31 32 33 34 33 24 23 16 22 25 27 29 28 28 26 24 24 22 20 17 15 12 11 11 9 10 12 14 15 15 13 13
32 32 33 32 32 33 24 27 20 14 20 26 30 30 28 27 23 22 23 22 20 18 16 14 14 10 11 12 13 17 19 18 15
31 35 35 32 33 32 22 21 23 17 15 22 24 26 26 25 22 23 24 25 24 20 17 15 17 13 12 14 13 16 21 22 20
31 35 37 33 31 34 22 22 26 22 18 17 22 25 24 25 26 24 23 26 25 22 19 17 19 17 13 15 16 17 20 22 24
30 35 35 32 30 33 34 24 26 26 24 21 18 19 20 23 25 25 25 25 23 22 21 20 18 22 18 17 17 18 20 22 25
37 29 34 31 29 30 34 25 23 25 25 23 24 24 23 23 23 24 25 26 26 25 25 24 24 24 26 23 22 21 21 22 25
26 36 31 32 28 32 32 31 25 25 25 29 29 27 27 27 26 25 24 24 24 25 24 25 25 26 25 24 20 24 23 23 24
24 29 31 32 27 33 31 28 26 27 26 28 31 31 28 27 26 27 27 27 26 25 25 22 22 24 23 21 22 20 21 22 24
23 21 21 24 30 27 29 33 27 26 23 23 27 27 25 25 32 31 31 29 29 29 27 26 25 24 25 24 23 22 21 20 21
10 14 17 16 20 32 33 31 32 32 25 21 22 21 20 21 21 23 30 37 34 32 30 30 28 26 27 26 24 22 22 23 24
10 11 11 11 13 18 28 36 36 36 34 31 29 27 25 25 24 22 24 32 38 37 34 33 32 30 29 28 27 27 26 27 29
14 14 16 16 16 19 18 19 20 18 22 29 31 32 29 28 29 27 25 27 33 36 36 36 36 35 34 33 31 33 35 36 37
22 19 22 21 21 23 23 25 28 27 27 35 37 36 34 32 32 31 29 26 30 37 38 36 37 38 40 38 36 38 39 42 45
27 26 24 26 25 27 31 31 34 42 37 35 35 31 31 32 33 33 32 30 31 32 40 41 39 41 43 43 41 38 40 43 46
23 23 24 28 30 29 31 34 36 40 39 38 37 34 33 33 32 34 36 34 33 34 35 42 44 43 42 42 41 43 43 43 47
22 18 20 27 32 34 33 33 30 31 31 34 35 34 33 31 33 33 34 36 35 34 35 39 43 42 43 44 44 42 43 45 46
17 8 25 19 19 26 35 33 30 30 30 33 35 35 31 30 32 29 29 32 33 31 34 38 39 41 41 41 40 40 40 39 38
19 18 18 14 16 18 27 31 31 31 28 27 34 36 33 29 30 28 26 28 31 31 33 36 37 38 37 37 38 37 37 33 33
13 10 11 13 15 22 22 24 30 31 29 28 27 33 33 31 30 30 29 28 27 27 28 29 28 26 27 28 30 28 30 31 32
18 12 14 18 20 21 22 20 24 29 28 28 26 31 33 33 31 31 30 28 25 22 25 27 29 29 27 26 27 29 33 35 38

GFSFLT1_700_spd_033.txt.gz
Wind_Speed
34 41 31 26 18 28 22 24 19 15 25 24 25 26 25 23 23 23 20 18 14 11 11 9 8 7 5 7 7 6 10 10 11
38 38 34 34 26 17 19 24 18 10 22 26 27 26 27 25 24 23 19 16 17 15 13 10 9 9 7 7 6 7 9 12 12
39 39 39 38 30 21 18 19 14 12 15 26 27 27 27 26 22 21 20 20 20 17 14 12 12 10 9 8 7 8 9 15 16
45 45 48 36 33 28 17 17 18 16 15 24 28 27 24 26 25 24 23 22 20 20 17 15 14 9 8 7 9 9 10 12 17
28 45 47 40 35 29 20 24 20 21 17 18 25 25 26 27 27 25 24 23 20 20 18 16 16 15 12 10 10 11 10 11 15
34 25 46 42 37 30 19 25 20 24 21 20 20 24 25 26 26 26 25 23 21 21 19 18 18 20 18 13 13 15 16 14 14
37 34 38 42 38 31 22 25 21 25 27 25 25 24 23 22 23 23 23 22 22 21 20 20 21 21 19 17 14 15 18 19 17
30 40 27 38 37 32 26 19 25 25 24 29 28 28 26 23 21 21 21 22 23 22 22 22 22 22 23 20 18 15 15 17 18
31 32 34 30 36 31 26 20 18 25 19 21 24 30 28 27 26 25 24 23 22 23 24 23 23 23 21 21 18 16 15 16 17
29 31 31 32 30 38 36 28 25 22 21 16 19 24 25 26 29 30 27 27 28 28 27 27 26 24 23 22 20 18 17 19 21
30 29 30 29 27 25 35 40 40 33 26 22 18 17 20 24 24 23 22 23 27 33 34 32 30 29 28 26 23 25 25 25 26
30 30 30 29 26 22 24 27 30 30 33 28 24 24 23 23 23 22 21 20 19 22 28 35 36 33 32 30 28 28 30 34 36
27 27 30 30 27 23 22 22 21 18 30 33 35 30 29 28 27 26 25 24 22 20 19 25 33 34 33 33 32 32 33 35 38
32 32 27 26 33 30 28 25 24 24 26 27 28 26 26 28 31 31 31 29 28 27 25 24 29 33 34 32 34 36 37 38 41
27 25 25 26 27 28 29 32 29 30 32 33 34 33 36 33 31 33 33 33 32 33 32 30 29 32 34 37 37 38 39 40 40
28 28 26 25 23 29 31 35 39 38 39 37 35 38 39 36 34 31 33 34 34 34 34 33 31 33 34 35 39 41 41 41 40
21 24 25 26 23 25 29 35 37 39 40 44 46 46 44 40 35 32 32 34 35 34 33 33 34 33 37 37 39 41 41 41 41
24 23 25 25 24 22 19 21 30 31 30 30 29 27 32 35 34 32 30 30 32 31 31 32 31 30 32 34 35 38 37 37 36
23 24 26 20 21 19 14 15 16 22 26 26 26 26 24 27 31 34 32 30 33 30 29 31 31 31 32 32 31 31 32 29 26
35 35 31 21 17 15 14 14 14 16 21 24 25 23 25 24 29 33 34 33 33 33 33 31 29 29 28 28 29 26 24 24 26

GFSFLT1_700_spd_036.txt.gz
Wind_Speed
39 36 27 22 22 21 22 24 25 24 29 30 30 29 28 27 26 25 23 21 19 15 13 12 12 11 9 8 9 12 13 12 13
42 40 34 30 23 20 23 19 21 25 23 30 30 29 29 28 26 27 24 21 19 18 16 15 14 10 9 9 8 12 15 15 14
39 45 37 31 30 21 16 17 16 18 20 29 29 30 30 28 26 25 24 24 22 19 18 17 16 12 10 9 9 9 13 17 17
31 49 36 33 33 26 19 19 21 18 21 25 32 32 31 30 27 27 27 24 22 20 19 19 18 15 13 11 9 7 8 12 17
34 40 36 31 36 31 27 24 20 19 21 23 30 29 29 29 28 29 29 26 22 21 21 20 17 16 13 11 10 9 6 7 11
38 38 41 39 42 37 34 26 21 19 21 22 25 28 30 31 31 30 28 26 24 22 21 22 20 17 13 13 11 10 9 8 9
45 42 32 44 40 40 38 26 23 16 19 22 23 28 28 29 29 27 25 24 24 24 22 22 22 19 16 14 14 14 13 13 13
44 44 31 39 42 41 39 24 28 18 19 20 22 24 25 25 24 24 24 23 23 23 24 22 21 20 18 17 16 15 15 14 15
35 35 36 34 36 40 40 27 27 24 21 21 24 23 24 23 22 21 21 22 22 23 23 22 23 22 20 18 18 16 15 15 15
28 30 33 34 37 37 38 29 22 28 24 17 21 24 24 23 23 22 21 20 22 22 22 22 23 23 23 22 21 20 19 17 17
29 30 34 36 35 35 38 31 26 21 23 16 14 19 22 25 28 27 26 26 26 26 25 26 26 26 25 25 25 25 24 23 24
33 31 32 35 38 40 39 36 30 26 24 23 22 20 20 21 22 24 27 27 26 26 29 31 32 33 32 31 30 31 31 32 32
39 38 35 33 31 35 40 46 43 39 34 32 26 25 21 18 19 19 22 23 23 21 21 21 22 29 35 38 38 37 35 37 38
34 35 35 33 32 32 32 34 35 37 32 30 30 30 27 24 22 25 26 24 23 23 23 22 22 22 26 33 37 40 41 41 40
33 33 32 31 29 28 29 31 30 29 27 29 32 32 32 32 33 31 30 29 29 29 28 27 26 26 25 27 32 37 39 41 39
35 33 31 28 26 27 29 31 29 27 29 30 30 30 31 32 33 32 30 30 30 33 33 33 32 32 31 30 32 36 37 38 38
31 29 27 26 24 23 24 28 35 34 31 30 31 32 30 30 32 34 34 35 36 35 33 34 35 35 35 35 36 36 36 36 36
30 31 29 27 26 26 28 29 34 38 39 38 38 38 37 36 36 38 41 44 41 36 33 34 34 34 34 34 35 34 34 34 35
27 25 26 26 25 25 25 22 27 33 38 41 43 43 43 40 35 33 36 38 36 36 33 30 30 30 31 31 31 29 29 30 32
21 21 19 17 16 16 18 19 22 22 22 27 32 35 34 33 30 27 28 32 34 35 34 32 30 29 30 27 27 27 26 24 26

GFSFLT1_700_spd_039.txt.gz
Wind_Speed
42 41 32 25 28 27 27 23 25 28 29 29 30 30 30 28 27 26 24 23 21 17 16 14 14 13 11 12 14 14 14 14 14
50 46 39 36 24 25 20 24 23 22 29 29 29 30 30 30 29 27 26 24 22 19 18 18 17 15 13 12 14 15 15 15 15
38 47 38 43 35 27 19 17 20 22 22 25 27 29 31 31 30 28 27 25 24 23 21 20 17 15 14 13 13 16 17 17 16
19 24 37 46 35 32 22 18 23 23 23 25 26 30 31 32 31 29 29 28 27 25 23 21 19 17 15 13 12 14 15 18 19
27 26 27 38 40 31 30 23 25 26 24 25 25 27 31 32 31 31 31 29 27 26 25 23 21 19 16 14 14 13 13 15 18
32 36 34 29 42 42 34 28 27 25 27 26 24 26 32 32 32 33 32 29 28 28 26 24 23 22 19 17 16 13 11 11 12
33 37 35 36 40 38 38 33 28 23 24 24 23 26 32 33 33 32 31 29 29 28 26 24 24 23 22 21 19 17 15 13 12
36 49 43 43 37 38 35 36 30 25 20 26 23 24 29 31 31 30 29 29 29 27 26 24 23 23 22 22 22 19 17 15 14
31 46 45 42 36 34 33 37 32 25 20 19 17 21 24 25 27 27 26 25 25 26 25 24 23 22 21 20 20 18 16 16 16
33 40 44 37 33 33 35 35 32 31 24 18 17 15 14 17 20 22 22 21 22 22 22 22 23 22 22 21 21 20 18 17 18
30 34 37 41 32 34 33 35 34 35 27 22 18 18 18 17 16 16 17 19 20 20 21 21 22 23 23 23 23 22 21 21 22
26 31 32 32 36 33 33 37 37 30 29 23 22 15 17 19 19 20 22 23 23 22 24 24 24 25 25 26 26 27 27 28 29
30 30 25 31 37 37 35 40 38 30 28 29 25 22 17 19 16 16 19 21 25 26 28 28 28 29 31 33 34 35 36 37 36
26 26 25 31 36 38 37 39 40 34 30 29 27 25 25 20 16 15 17 17 19 21 22 24 24 24 26 27 29 33 36 39 42
29 29 29 30 34 38 37 38 43 41 39 36 33 31 31 28 25 22 21 21 22 24 26 26 26 26 27 27 27 27 30 35 41
32 33 33 32 30 31 32 34 37 39 42 40 38 35 31 33 32 31 29 27 26 27 29 26 27 27 28 28 27 28 30 31 34
34 32 31 30 27 27 28 29 29 30 32 36 38 37 36 37 38 37 36 35 33 28 26 26 28 28 28 28 30 31 31 32 33
29 33 32 32 30 28 27 27 29 31 33 35 37 38 39 40 39 37 36 35 34 32 32 34 34 33 32 32 32 32 32 32 32
25 24 28 29 28 26 25 24 24 27 32 35 36 34 33 34 35 36 36 37 36 36 39 40 38 34 33 31 31 31 31 31 31
20 21 20 23 22 23 24 22 21 23 20 21 26 31 40 43 42 41 40 41 40 37 35 35 35 33 33 31 30 31 29 28 28

GFSFLT1_700_spd_042.txt.gz
Wind_Speed
30 31 33 37 31 27 26 23 26 32 34 35 36 34 33 30 28 25 22 21 18 15 14 13 14 13 13 14 15 15 14 13 13
26 30 35 32 36 31 30 29 27 32 33 34 35 33 31 31 28 26 25 22 21 18 17 17 16 15 15 16 16 17 17 16 15
23 20 30 35 34 33 32 34 30 28 30 32 32 33 32 30 28 27 25 25 24 22 20 20 19 17 16 15 16 18 19 18 18
33 25 22 28 34 35 32 35 35 31 28 30 33 32 32 31 30 29 27 26 25 24 24 23 21 19 18 16 16 17 18 20 20
30 18 17 28 30 34 35 32 33 32 33 32 29 29 30 31 31 31 30 28 26 26 25 24 23 21 19 17 16 16 16 20 22
33 24 21 19 31 33 36 34 30 32 34 33 31 29 30 32 32 33 32 30 28 28 27 26 25 24 21 19 17 17 16 16 18
33 33 30 29 29 33 33 36 32 29 31 31 31 31 31 33 34 34 32 31 30 29 28 27 26 24 22 21 20 18 17 16 15
33 30 30 31 31 32 36 37 36 30 27 30 30 31 31 33 33 33 33 33 32 30 29 26 25 25 24 24 23 22 19 16 15
31 34 35 36 38 35 41 32 36 30 28 29 29 25 26 27 31 31 31 32 31 30 27 26 26 25 24 24 25 23 21 20 18
29 36 42 44 43 40 37 31 34 34 29 27 31 27 25 23 26 28 27 28 29 29 27 27 25 23 23 22 23 23 22 20 20
30 39 47 52 49 48 36 30 32 34 31 27 29 23 18 18 20 23 23 25 25 25 25 24 23 22 20 19 20 20 20 20 22
20 24 23 34 44 41 31 31 33 35 33 27 27 26 20 17 17 18 19 20 20 19 19 20 19 20 20 21 21 20 21 23 25
16 23 31 36 36 35 34 37 36 36 33 30 27 20 19 21 22 20 18 18 17 17 19 20 21 22 22 23 24 25 27 29 30
14 30 30 37 39 35 29 34 36 37 33 33 28 24 21 21 19 19 18 16 16 19 21 23 23 24 25 26 27 28 29 31 35
15 28 34 32 33 33 36 31 33 40 34 31 28 28 25 21 20 19 19 17 18 20 22 22 23 23 24 24 24 24 26 28 31
18 21 26 24 23 29 33 34 32 39 37 34 33 32 30 28 25 23 24 22 23 23 21 23 24 24 23 21 21 23 26 27 29
23 23 23 23 23 26 28 31 33 41 42 41 40 38 34 32 30 30 29 29 27 21 24 26 27 24 23 22 23 24 24 26 28
25 26 27 25 23 22 21 22 24 27 34 37 36 36 35 34 33 32 33 33 32 29 27 29 31 28 26 27 28 28 26 29 28
29 27 28 30 29 27 25 24 22 22 22 23 25 27 29 31 34 36 36 37 37 33 29 29 30 32 32 34 35 32 31 31 29
25 27 27 28 29 31 31 29 29 28 28 29 30 31 33 36 37 37 37 38 38 38 37 35 34 35 38 37 34 32 31 29 28

GFSFLT1_700_spd_045.txt.gz
Wind_Speed
26 28 26 30 32 23 25 24 30 32 33 34 36 36 34 32 29 27 26 25 21 18 15 14 16 14 14 15 14 13 14 14 13
29 27 26 26 31 33 24 27 26 31 31 33 34 33 33 32 31 30 29 26 24 21 19 18 18 16 16 16 17 16 15 16 15
30 27 28 26 27 29 31 27 28 26 32 32 31 33 33 33 32 31 30 28 26 23 21 22 20 17 16 17 16 18 18 18 19
38 30 21 18 25 26 26 31 28 29 31 32 35 34 34 34 34 33 33 31 27 25 23 23 20 18 18 18 16 17 19 21 21
35 37 34 23 23 29 29 28 30 28 30 34 34 34 35 35 34 34 34 32 29 27 25 24 22 21 20 19 17 17 19 23 23
39 33 33 25 25 32 33 30 32 33 31 34 34 35 35 35 36 36 34 32 31 29 28 25 24 24 22 21 19 18 18 20 23
33 37 31 29 24 29 34 30 30 33 34 33 35 34 33 35 35 35 34 32 32 31 29 27 27 25 23 22 21 20 19 19 19
31 32 33 34 31 25 29 38 33 34 33 31 36 38 36 35 34 34 34 34 33 32 32 29 28 27 26 25 25 23 20 18 16
26 26 31 35 34 28 25 30 35 35 33 31 34 35 36 35 35 36 36 36 35 34 33 31 29 28 27 26 25 22 20 19 18
25 27 29 33 35 33 30 27 35 33 32 31 32 32 31 34 34 36 36 35 36 34 33 31 29 28 26 25 24 23 22 22 22
24 26 31 35 36 40 37 30 35 35 34 32 32 28 30 29 33 35 34 33 34 32 31 30 28 26 24 24 23 22 24 24 25
25 24 27 36 41 42 42 37 34 35 32 35 32 28 28 29 29 28 29 31 31 30 29 29 28 25 24 22 21 21 23 25 27
23 22 27 39 43 47 46 44 36 38 35 32 31 28 29 26 25 27 27 27 26 26 26 26 26 25 23 22 21 22 24 26 28
22 21 23 38 45 52 54 49 42 39 36 34 31 31 28 26 23 23 24 24 25 25 25 24 24 24 22 22 23 24 26 27 28
21 14 18 25 32 39 45 50 40 37 38 37 34 31 27 26 27 27 26 26 26 26 25 25 24 24 24 25 27 28 28 28 27
14 12 17 24 28 34 42 40 36 34 41 40 39 33 30 29 30 29 28 27 27 25 25 26 26 27 28 27 25 23 23 24 24
12 15 22 25 29 32 32 31 30 31 41 38 41 37 34 34 33 32 32 30 28 27 23 23 23 21 22 23 22 23 24 23 24
17 17 20 24 27 27 28 29 34 39 41 40 33 39 38 38 35 34 33 30 28 28 25 22 24 24 25 24 24 25 25 25 25
22 21 21 22 25 25 25 27 29 32 38 46 47 43 42 42 39 35 34 29 27 31 33 34 35 30 28 26 28 28 29 31 33
24 22 23 24 25 27 27 26 26 27 25 26 35 35 33 33 28 27 35 28 25 26 28 31 34 35 33 31 31 33 35 37 37

GFSFLT1_700_spd_048.txt.gz
Wind_Speed
26 26 24 26 27 27 24 26 31 34 36 36 36 36 35 33 31 29 27 25 22 21 19 17 17 16 13 12 11 11 11 10 9
25 26 24 24 25 30 25 24 27 29 31 35 36 36 36 36 34 33 30 27 25 24 22 20 19 18 15 14 13 13 14 14 13
28 28 24 24 26 26 30 25 24 26 29 30 34 36 36 36 36 34 31 29 27 26 24 22 21 19 17 16 15 15 16 17 17
32 26 29 25 26 24 23 27 28 26 24 30 32 33 34 36 36 34 33 32 29 28 26 24 23 21 19 17 16 16 17 17 18
33 31 30 24 20 22 26 28 28 30 28 23 29 31 32 33 34 34 34 33 31 30 28 26 25 23 21 19 18 17 17 19 19
28 30 31 33 33 32 25 25 26 27 31 29 27 27 32 33 34 35 34 32 32 33 31 28 27 25 24 21 19 18 17 19 21
29 31 30 29 29 31 29 30 30 29 29 30 30 30 30 33 33 33 32 32 33 33 32 30 29 28 25 23 22 21 19 18 20
22 30 32 38 30 30 25 29 31 32 31 33 32 33 31 31 32 31 32 34 35 34 33 31 30 30 28 26 25 23 20 19 18
20 19 26 34 38 35 32 25 31 34 33 33 33 33 34 32 30 33 34 34 35 36 35 32 31 31 30 29 27 25 22 21 20
27 27 24 28 37 36 35 28 31 37 35 36 34 34 35 36 34 32 33 34 35 37 36 34 33 32 31 29 27 24 23 23 23
35 32 28 29 35 37 34 28 30 36 38 40 36 35 34 35 37 37 36 35 36 36 36 36 34 33 31 29 27 25 24 24 24
23 26 28 30 34 36 38 37 33 30 37 41 40 38 35 31 31 33 36 37 38 36 36 37 34 32 30 29 26 25 25 25 27
26 26 26 30 34 36 42 40 37 35 37 39 41 38 36 28 29 31 30 37 36 34 33 33 32 31 31 28 27 27 27 28 29
25 25 22 28 33 37 42 43 40 36 31 34 36 37 37 30 32 30 28 27 32 35 34 34 33 33 31 29 28 29 30 30 31
29 25 23 28 33 38 42 48 46 42 36 35 40 38 35 30 32 28 31 33 34 35 35 34 33 32 31 30 29 29 29 30 30
31 26 25 26 33 44 50 50 51 47 40 39 38 40 35 33 31 29 27 30 33 35 34 34 33 33 32 30 30 29 30 30 30
27 23 22 24 27 37 51 56 54 54 50 42 45 44 40 38 35 32 32 32 32 33 34 34 34 34 34 34 33 31 30 27 26
16 17 21 24 25 27 33 46 56 55 48 45 52 48 46 41 39 36 37 38 39 39 38 38 36 35 33 30 29 28 26 26 25
23 20 22 26 26 31 33 38 42 43 47 51 51 50 47 45 41 39 39 40 40 40 37 33 31 30 29 30 30 28 26 28 27
26 24 25 27 30 29 32 32 37 41 42 42 46 43 45 42 44 45 43 42 44 45 43 39 36 34 34 33 29 29 30 29 28